STARLINK-1556, 46033

Orbit data source: Space-Track

STARLINK-1556, 46033 is a payload satellite owned by SpaceX/Seattle (US) in LEO that was launched on Fri, 07 Aug 2020 UTC via an FALCON 9 launch vehicle from the Air Force Eastern Test Range (AFETR). Payload-class satellites include a variety of spacecraft equipped with specific instruments for various scientific and technological missions. These include communications satellites like Starlink; space stations such as the ISS; scientific satellites like the Hubble; Earth observation satellites from companies like Planet Labs, Umbra, and HawkEye 360; GPS; miniature CubeSats for education and research; and military/defense satellites.

Loading next visibility...
Identifier
46033, 2020-055G
Orbit
LEO
Country
Flag of USUS
Related business
Manufacturer
SpaceX/Seattle
Mission
Operational Commercial Communications
Bus & Motor
STARLINK, Unknown motor
Mass
260 kg wet, ~248 kg dry
Launch date (UTC)
2020-08-07 (6 years ago)
Launch vehicle
FALCON 9
Launch site
Air Force Eastern Test Range (AFETR)
Object type
Payload
Rocket body
Debris
Shape & HBR
Box + 1 Pan, 10.1 m
Radar Cross Section
13.562 m², Large (>1 m²)

Expand to show TLE details & history
Last TLE update: 6 hours ago

TLE from 6 hours ago
0 STARLINK-1556
1 46033U 20055G   26170.66668981 -.00009562  00000-0 -29667-3 0  9991
2 46033  53.1603  13.0046 0001062  88.2501 101.3685 15.31710416  5775
Epoch: 2026-06-19T16:00Z
TLE epoch observation values (Epoch: 2026-06-19T16:00:01.999Z)
Latitude
-7.82019°
Longitude
50.97691°
Altitude
473.098 km
Speed
7.63 km/s
True Right ascension
13h 15m 30s
True Declination
-7° 46' 19"
Sunlit
Object was in full shadow at epoch
Visualization orbit readout
Latitude
Unknown
Longitude
Unknown
Altitude
Unknown
Speed
Unknown
Apparent Right ascension
Unknown
Apparent Declination
Unknown
Sunlit
N/A
Visualization observer readout
Local Sidereal Time
08:45:10
Azimuth
Unknown
Elevation
Unknown
Doppler factor
Unknown
Orbital elements
Apogee altitude
471.693 km
Perigee altitude
470.238 km
Semi-major axis
6,849.102 km
Eccentricity
0.00011
Inclination
53.1603°
RAAN
13.0046°
Arg. of periapsis
88.2501°
True anomaly
101.38043°
Mean anomaly
101.3685°
Eccentric anomaly
101.37447°
Mean motion
3.82906 °/min
Orbital period
94.02 mins
BSTAR
-0.00029667
Loading maneuver chart data...
Computing Atmospheric mass density...
Loading historical data...
Loading historical data...
Loading historical data...
Loading historical data...
Loading historical data...
Loading historical data...
Loading historical data...

Documentation

Showing up to 5 results
|